THORAD DELTA 1 DEB, 8789

Orbit data source: Space-Track

THORAD DELTA 1 DEB, 8789 is space debris in SSO originally from a launch on Fri, 15 Nov 1974 UTC launched from the Air Force Western Test Range (AFWTR). Debris objects in space refer to the collection of defunct objects orbiting the Earth. Examples of debris include non-operational satellites, rocket bodies, and fragments generated from explosions, collisions, or faulty payload assembly.

Loading next visibility...
Identifier
8789, 1974-089DR
Orbit
SSO
Country
Flag of USUS
Related business
Manufacturer
Unknown
Mission
Spacecraft
Bus & Motor
Unknown
Mass
Unknown
Launch date (UTC)
1974-11-15 (51 years ago)
Launch vehicle
Unknown
Launch site
Air Force Western Test Range (AFWTR)
Object type
Payload
Rocket body
Debris
Shape & HBR
Unknown shape, 0.1 m
Radar Cross Section
Small (<0.1 m²)

Expand to show TLE details & history
Last TLE update: 10 hours ago

TLE from 10 hours ago
0 THORAD DELTA 1 DEB
1  8789U 74089DR  26035.37378772 -.00000036  00000-0  66319-4 0  9999
2  8789 102.1370 347.8970 0105961 134.8504  16.6700 12.38984617315999
Epoch: 2026-02-04T08:58Z
TLE epoch observation values (Epoch: 2026-02-04T08:58:15.259Z)
Latitude
27.48432°
Longitude
-94.81621°
Altitude
1,433.937 km
Speed
7.183 km/s
True Right ascension
11h 37m 09s
True Declination
27° 21' 21"
Sunlit
Object was in full shadow at epoch
Visualization orbit readout
Latitude
Unknown
Longitude
Unknown
Altitude
Unknown
Speed
Unknown
Apparent Right ascension
Unknown
Apparent Declination
Unknown
Sunlit
N/A
Visualization observer readout
Local Sidereal Time
21:27:09
Azimuth
Unknown
Elevation
Unknown
Doppler factor
Unknown
Orbital elements
Apogee altitude
1,592.062 km
Perigee altitude
1,424.927 km
Semi-major axis
7,886.631 km
Eccentricity
0.0106
Inclination
102.137°
RAAN
347.897°
Arg. of periapsis
134.8504°
True anomaly
17.02278°
Mean anomaly
16.67°
Eccentric anomaly
16.84594°
Mean motion
3.09889 °/min
Orbital period
116.17 mins
BSTAR
0.000066319
Loading maneuver chart data...
Computing Atmospheric mass density...

Documentation

Showing up to 5 results
|